Regional Weather Roundup
Issued by NWS

Home | Current Version | Previous Version | Text Only | Print | Product List | Glossary On
Versions: 1 2 3 4 5 6 7 8 9 10 11 12 13 14 15 16 17 18 19 20 21 22 23 24 25 26 27 28 29 30 31 32 33 34 35 36 37 38 39 40 41 42 43 44 45 46 47 48 49 50
000
ASUS43 KLOT 270906
RWRIL

ILLINOIS REGIONAL WEATHER ROUNDUP
NATIONAL WEATHER SERVICE CHICAGO/ROMEOVILLE IL
300 AM CST TUE JAN 27 2015

NOTE: "FAIR" INDICATES FEW OR NO CLOUDS BELOW 12,000 FEET WITH NO
SIGNIFICANT WEATHER AND/OR OBSTRUCTIONS TO VISIBILITY.

* THESE STATIONS ARE NOT UNDER NWS QUALITY CONTROL. THEY ALSO MAY NOT
  REPORT WEATHER SUCH AS PRECIPITATION OR FOG.

ILZ001-002-007-009-015-016-024-271000-
NORTHWEST ILLINOIS

CITY           SKY/WX    TMP DP  RH WIND       PRES   REMARKS
MOLINE         CLOUDY    36  30  79 N9        29.97R WCI  29
STERLING*      CLOUDY    28  27  93 N3        29.96S
SAVANNA*       CLOUDY    28  27  93 NW6       29.99R FOG     WCI  22
$$

ILZ003-004-008-010-011-017-018-271000-
NORTH CENTRAL ILLINOIS

CITY           SKY/WX    TMP DP  RH WIND       PRES   REMARKS
ROCKFORD       CLOUDY    27  24  89 N6        29.99R FOG     WCI  20
FREEPORT*      CLOUDY    26  25  96 N5        29.98R FOG     WCI  20
ROCHELLE*      CLOUDY    27  26  96 N7        29.97R FOG     WCI  19
DE KALB*       CLOUDY    25  24  95 CALM      29.96R FOG
PERU*          CLOUDY    30  30  99 N5        29.96S FOG     WCI  25
$$

ILZ005-006-012>014-019>023-271000-
NORTHEAST ILLINOIS

CITY           SKY/WX    TMP DP  RH WIND       PRES   REMARKS
CHICAGO-OHARE  CLOUDY    27  24  89 N5        29.95R WCI  22
CHICAGO-MIDWAY LGT SNOW  29  25  85 SE3       29.96R FOG
AURORA         CLOUDY    28  24  85 N5        29.96R FOG     WCI  23
LANSING*       FLURRIES  24  23  93 CALM      29.96R
JOLIET*        CLOUDY    27  26  94 CALM      29.96R FOG
WAUKEGAN       CLOUDY    26  23  88 CALM      29.95R
DUPAGE AIRPORT CLOUDY    26  24  92 N3        29.95R FOG
KANKAKEE*      CLOUDY    28  27  95 CALM      29.95R
WHEELING       CLOUDY    27  24  89 N3        29.98R
MORRIS*        CLOUDY    28  28  99 CALM      29.95R FOG
ROMEOVILLE*    CLOUDY    27  27  98 CALM      29.96R FOG
NORTHERLY ISL    N/A     26  24  92 E6          N/A  WCI  20
$$

LMZ740>746-271000-
SOUTHERN LAKE MICHIGAN

STATION/POSITION SKY/WX   TEMP    WIND        PRES    VSBY  WAVE
                          AIR SEA DIR/SP/G                  HT/PER
                          (F)     (DEG/KT/KT) (MB)    (MI)  (FT/S)
WAUKEGAN HARBOR            27        CALM       N/A
HARRISON CRIB              26     120/  7/  8   N/A
BURNHAM HARBOR             27     100/  4/  9   N/A
CALUMET HARBOR             26      80/  4/  5   N/A
MICHIGAN CITY              23     100/  5/  7   N/A
$$

ILZ025>027-034>036-040-047-049-050-058-095>099-271000-
WEST-CENTRAL ILLINOIS

CITY           SKY/WX    TMP DP  RH WIND       PRES   REMARKS
QUINCY         CLEAR     34  31  88 NW9       29.99R WCI  27
GALESBURG*     CLOUDY    34  33  96 NW8       29.96S WCI  27
MACOMB*        CLOUDY    36  34  94 NW10      30.00R WCI  28
JACKSONVILLE*  CLOUDY    37  35  90 NW7       29.96R WCI  32
PITTSFIELD*    CLEAR     38  35  88 NW7       29.98R WCI  32
$$

ILZ028>032-037-038-041>044-048-051>054-059>061-271000-
CENTRAL ILLINOIS

CITY           SKY/WX    TMP DP  RH WIND       PRES   REMARKS
PONTIAC        MIX PCPN  31  31  99 N6        29.95R WCI  26
BLOOMINGTON    CLOUDY    32  31  96 N12       29.93R FOG     WCI  23
DECATUR        CLOUDY    33  32  96 NW14      29.92R WCI  23
PEORIA         PTCLDY    32  29  88 N6        29.96R FOG     WCI  26
LACON*         CLOUDY    30  28  93 N6        29.96R FOG     WCI  24
LINCOLN*       MOCLDY    33  31  94 NW5       29.95R FOG     WCI  28
SPRINGFIELD    CLOUDY    36  32  85 NW9       29.95R WCI  29
TAYLORVILLE    CLOUDY    34  32  93 NW10      29.94R WCI  26
$$

ILZ033-039-045-046-055>057-062-063-271000-
EAST-CENTRAL ILLINOIS

CITY           SKY/WX    TMP DP  RH WIND       PRES   REMARKS
CHAMPAIGN      CLOUDY    31  29  92 NW6       29.91R FOG     WCI  25
DANVILLE*      LGT SNOW  28  28  97 CALM      29.90R
RANTOUL*       LGT SNOW  31  31  98 CALM      29.92R VSB 3/4
MATTOON        CLOUDY    30  28  92 CALM      29.90R FOG
PARIS*         CLOUDY    29  29  99 CALM      29.92S FOG
$$

ILZ079-100>102-271000-
SOUTHWEST ILLINOIS

CITY           SKY/WX    TMP DP  RH WIND       PRES   REMARKS
BELLEVILLE     CLEAR     34  33  98 NW7       29.94R WCI  28
CAHOKIA*       CLEAR     39  34  82 NW12      29.95R WCI  32
SPARTA*        FAIR      35  32  88 NW5       29.94R WCI  31
$$

ILZ064>066-069>071-074>076-080>082-084>086-088>090-092>094-271000-
SOUTH-CENTRAL ILLINOIS

CITY           SKY/WX    TMP DP  RH WIND       PRES   REMARKS
CARBONDALE     PTCLDY    33  29  85 W5        29.93R WCI  29
EFFINGHAM*     CLOUDY    32  29  88 CALM      29.93S FOG
MT. VERNON     MOCLDY    28  25  86 CALM      29.93R
CENTRALIA*     CLEAR     31  28  90 NW5       29.92R WCI  26
SALEM*         PTCLDY    32  29  90 CALM      29.92R FOG
METROPOLIS*    CLOUDY    37  33  87 W5        29.91R WCI  33
$$

ILZ067-068-072-073-078-083-087-091-271000-
SOUTHEAST ILLINOIS

CITY           SKY/WX    TMP DP  RH WIND       PRES   REMARKS
LAWRENCEVILLE  CLOUDY    30  30 100 CALM      29.92F FOG
FLORA*         CLOUDY    31  30  96 CALM      29.93R FOG
FAIRFIELD*     CLOUDY    31  30  96 CALM      29.91S FOG
HARRISBURG*    PTCLDY    30  30 100 CALM      29.93R
ROBINSON*      CLOUDY    30  30  99 CALM      29.94S FOG
CARMI*         CLOUDY    34  34 100 CALM      29.92R FOG
$$

ABBREVIATIONS USED IN REMARKS
   TC - TEMPERATURE IN CELSIUS
  WCI - WIND CHILL INDEX
   HX - HEAT INDEX
  VSB - VISIBILITY
$$



USA.gov is the U.S. government's official web portal to all federal, state and local government web resources and services.